Date,TemperatureHighF,TemperatureAvgF,TemperatureLowF,DewpointHighF,DewpointAvgF,DewpointLowF,HumidityHigh,HumidityAvg,HumidityLow,PressureMaxIn,PressureMinIn,WindSpeedMaxMPH,WindSpeedAvgMPH,GustSpeedMaxMPH,PrecipitationSumIn
2013-1-1,53,44,39,49,41,37,100,89,64,30.04,29.50,5,1,11,0.11
2013-1-2,52,44,36,52,44,36,100,99,93,30.37,30.04,3,0,8,0.05
2013-1-3,53,52,50,53,51,50,100,99,97,30.61,30.33,5,1,12,0.01
2013-1-4,53,50,45,51,48,45,100,92,81,30.64,29.70,4,2,11,0.00
2013-1-5,52,49,46,51,48,46,100,98,92,30.59,30.50,4,1,9,0.01
2013-1-6,48,46,44,48,46,44,100,100,100,30.52,30.38,3,0,6,0.01
2013-1-7,49,47,45,49,47,45,100,100,98,30.38,30.24,4,1,9,0.01
2013-1-8,53,50,48,51,49,47,100,96,88,30.26,30.19,4,1,9,0.01
2013-1-9,58,45,33,50,43,33,100,95,67,30.19,30.07,2,0,6,0.08
2013-1-10,38,35,32,38,35,32,100,100,99,30.08,29.93,2,0,5,0.00
2013-1-11,50,37,32,46,36,32,100,98,82,30.08,29.97,1,0,4,0.00
2013-1-12,41,38,34,38,36,31,100,91,68,29.98,29.85,4,1,12,0.02
2013-1-13,42,36,32,35,32,29,90,86,79,30.14,29.81,3,0,8,0.00
2013-1-14,37,34,32,37,33,29,100,97,89,30.10,29.62,5,1,13,0.15
2013-1-15,38,34,28,35,33,28,100,97,87,29.88,29.62,4,1,13,0.00
2013-1-16,33,29,27,33,29,27,100,100,98,30.02,29.84,1,0,5,0.00
2013-1-17,46,32,23,36,29,23,100,90,66,30.08,29.88,4,0,7,0.02
2013-1-18,52,31,28,31,29,27,100,94,79,30.61,29.44,4,1,12,0.00
2013-1-19,34,32,30,34,31,28,100,96,90,29.49,29.40,4,1,9,0.00
2013-1-20,33,31,29,33,30,28,100,98,90,29.48,29.27,2,0,11,0.00
2013-1-21,44,33,28,37,32,28,100,95,73,29.50,29.26,2,0,6,0.04
2013-1-22,38,33,24,37,32,24,100,95,85,29.69,29.50,3,0,10,0.20
2013-1-23,36,35,34,35,33,32,100,94,90,29.90,29.68,3,0,8,0.06
2013-1-24,36,34,28,34,31,27,100,89,79,30.14,29.27,3,0,6,0.00
2013-1-25,38,35,29,37,31,27,100,87,78,30.13,29.57,10,3,18,0.04
2013-1-26,51,42,36,46,40,36,100,94,73,29.83,29.55,8,2,16,0.19
2013-1-27,55,48,40,50,43,36,100,84,57,29.62,29.27,11,3,20,0.26
2013-1-28,52,43,37,50,41,36,100,93,83,29.82,29.54,10,2,19,0.08
2013-1-29,57,53,50,57,53,48,100,98,87,29.65,29.54,6,2,21,0.07
2013-1-30,56,51,45,54,46,40,100,85,62,30.04,29.50,12,3,36,0.20
2013-1-31,54,49,45,48,44,41,94,82,69,30.03,29.78,8,3,22,0.06